�������l�o���
Date,Time,MP-1(��Sv/h),MP-2(��Sv/h),MP-3(��Sv/h),MP-4(��Sv/h),MP-5(��Sv/h),MP-6(��Sv/h),MP-7(��Sv/h),MP-8(��Sv/h),����,����(m/s),���J
2015/02/06,00:00,1.800,3.248,3.258,3.110,3.345,1.067,1.768,2.097,�k�k��,6.8,��
2015/02/06,00:10,1.800,3.245,3.265,3.108,3.350,1.065,1.765,2.093,�k�k��,6.5,��
2015/02/06,00:20,1.798,3.247,3.263,3.107,3.352,1.065,1.767,2.097,�k�k��,6.0,��
2015/02/06,00:30,1.797,3.250,3.263,3.112,3.348,1.067,1.768,2.095,�k�k��,6.3,��
2015/02/06,00:40,1.798,3.252,3.262,3.113,3.350,1.068,1.767,2.098,�k�k��,6.9,��
2015/02/06,00:50,1.800,3.247,3.267,3.112,3.348,1.068,1.767,2.097,�k�k��,7.4,��
2015/02/06,01:00,1.800,3.250,3.265,3.112,3.350,1.067,1.765,2.097,�k�k��,8.2,��
2015/02/06,01:10,1.798,3.250,3.267,3.113,3.348,1.067,1.767,2.098,�k�k��,7.8,��
2015/02/06,01:20,1.800,3.255,3.263,3.112,3.352,1.067,1.768,2.097,�k�k��,7.9,�L
2015/02/06,01:30,1.805,3.252,3.267,3.115,3.350,1.065,1.768,2.097,�k�k��,7.8,�L
2015/02/06,01:40,1.800,3.252,3.267,3.115,3.352,1.068,1.767,2.093,�k,8.0,�L
2015/02/06,01:50,1.800,3.253,3.268,3.115,3.353,1.067,1.767,2.098,�k�k��,7.4,��
2015/02/06,02:00,1.802,3.250,3.270,3.118,3.353,1.070,1.770,2.097,�k�k��,7.8,��
2015/02/06,02:10,1.800,3.250,3.267,3.120,3.352,1.065,1.768,2.097,�k�k��,6.7,��
2015/02/06,02:20,1.803,3.250,3.273,3.118,3.355,1.068,1.768,2.095,�k�k��,7.4,��
2015/02/06,02:30,1.802,3.250,3.270,3.117,3.350,1.067,1.767,2.095,�k�k��,7.2,��
2015/02/06,02:40,1.800,3.252,3.268,3.117,3.353,1.065,1.765,2.095,�k��,7.1,��
2015/02/06,02:50,1.803,3.252,3.267,3.118,3.353,1.065,1.767,2.095,�k��,6.6,��
2015/02/06,03:00,1.803,3.252,3.272,3.115,3.355,1.063,1.767,2.098,�k��,6.1,��
2015/02/06,03:10,1.803,3.252,3.267,3.117,3.355,1.067,1.767,2.095,�k��,7.1,��
2015/02/06,03:20,1.803,3.248,3.268,3.120,3.353,1.063,1.767,2.095,�k��,7.2,��
2015/02/06,03:30,1.807,3.253,3.268,3.125,3.353,1.067,1.767,2.095,�k��,7.1,��
2015/02/06,03:40,1.803,3.252,3.273,3.122,3.353,1.067,1.768,2.098,�k��,6.5,��
2015/02/06,03:50,1.800,3.252,3.273,3.122,3.352,1.067,1.767,2.095,�k��,6.8,��
2015/02/06,04:00,1.803,3.253,3.273,3.123,3.355,1.068,1.768,2.098,�k��,7.1,��
2015/02/06,04:10,1.805,3.253,3.268,3.122,3.355,1.067,1.767,2.098,�k��,6.8,��
2015/02/06,04:20,1.802,3.252,3.272,3.123,3.352,1.067,1.768,2.095,�k��,6.4,��
2015/02/06,04:30,1.807,3.257,3.265,3.123,3.352,1.065,1.770,2.098,�k��,6.3,��
2015/02/06,04:40,1.805,3.255,3.272,3.123,3.352,1.065,1.768,2.097,�k��,6.8,��
2015/02/06,04:50,1.802,3.255,3.272,3.125,3.355,1.063,1.767,2.095,�k��,5.8,��
2015/02/06,05:00,1.802,3.252,3.267,3.120,3.352,1.065,1.768,2.097,�k��,6.0,��
2015/02/06,05:10,1.802,3.248,3.270,3.127,3.352,1.067,1.767,2.095,�k��,6.0,��
2015/02/06,05:20,1.807,3.253,3.272,3.125,3.352,1.065,1.770,2.097,�k��,5.6,��
2015/02/06,05:30,1.807,3.255,3.272,3.127,3.357,1.065,1.768,2.098,�k��,5.3,��
2015/02/06,05:40,1.803,3.255,3.272,3.123,3.352,1.065,1.768,2.098,�k��,5.5,��
2015/02/06,05:50,1.805,3.255,3.270,3.127,3.352,1.067,1.768,2.095,�k��,5.4,��
2015/02/06,06:00,1.803,3.255,3.272,3.125,3.350,1.062,1.768,2.095,�k��,5.2,��
2015/02/06,06:10,1.803,3.257,3.270,3.127,3.352,1.063,1.768,2.097,�k��,5.4,��
2015/02/06,06:20,1.803,3.255,3.272,3.125,3.350,1.063,1.767,2.095,�k��,5.5,��
2015/02/06,06:30,1.807,3.250,3.272,3.132,3.350,1.063,1.767,2.095,�k��,5.8,��
2015/02/06,06:40,1.805,3.250,3.270,3.125,3.348,1.062,1.767,2.097,�k��,5.5,��
2015/02/06,06:50,1.807,3.253,3.272,3.125,3.347,1.062,1.768,2.095,�k�k��,5.6,��
2015/02/06,07:00,1.805,3.252,3.272,3.125,3.347,1.058,1.770,2.097,�k�k��,4.8,��
2015/02/06,07:10,1.807,3.252,3.270,3.127,3.345,1.058,1.768,2.092,�k�k��,5.2,��
2015/02/06,07:20,1.805,3.250,3.270,3.133,3.347,1.055,1.770,2.097,�k�k��,4.6,��
2015/02/06,07:30,1.802,3.252,3.270,3.132,3.347,1.052,1.770,2.095,�k,4.7,��
2015/02/06,07:40,1.805,3.252,3.275,3.125,3.348,1.048,1.767,2.097,�k�k��,4.9,��
2015/02/06,07:50,1.803,3.253,3.272,3.128,3.348,1.047,1.768,2.097,�k�k��,4.6,��
2015/02/06,08:00,1.803,3.253,3.275,3.130,3.350,1.048,1.770,2.097,�k�k��,3.8,��
2015/02/06,08:10,1.805,3.260,3.277,3.128,3.350,1.047,1.773,2.098,�k�k��,3.5,��
2015/02/06,08:20,1.807,3.253,3.278,3.128,3.355,1.047,1.773,2.097,�k�k��,3.5,��
2015/02/06,08:30,1.807,3.257,3.280,3.130,3.357,1.048,1.770,2.098,�k�k��,2.5,��
2015/02/06,08:40,1.808,3.260,3.272,3.133,3.360,1.043,1.770,2.098,�k,2.5,��
2015/02/06,08:50,1.808,3.257,3.258,3.135,3.357,1.043,1.770,2.097,�k,2.2,��
2015/02/06,09:00,1.812,3.260,3.258,3.135,3.358,1.043,1.772,2.095,�k�k��,2.1,��
2015/02/06,09:10,1.812,3.262,3.263,3.135,3.362,1.045,1.772,2.098,�k,1.9,��
2015/02/06,09:20,1.808,3.265,3.275,3.140,3.362,1.045,1.772,2.097,�k,1.5,��
2015/02/06,09:30,-,3.268,3.267,3.137,3.362,1.045,1.775,2.097,�k�k��,1.6,��
2015/02/06,09:40,-,3.268,3.273,3.135,3.368,1.047,1.775,2.095,�k,1.9,��
2015/02/06,09:50,-,3.267,3.287,3.140,3.370,1.045,1.775,2.097,�k�k��,2.4,��
2015/02/06,10:00,-,3.270,3.285,3.140,3.373,1.047,1.775,2.100,���k��,2.5,��
2015/02/06,10:10,-,3.268,3.288,3.137,3.377,1.048,1.773,2.098,�k��,2.8,��
2015/02/06,10:20,-,3.263,3.292,3.140,3.378,1.047,1.773,2.100,�k��,3.6,��
2015/02/06,10:30,-,3.280,3.290,3.140,3.382,1.047,1.775,2.097,�k��,4.0,��
2015/02/06,10:40,-,3.280,3.292,3.143,3.378,1.047,1.775,2.102,�k��,4.3,��
2015/02/06,10:50,-,3.280,3.297,3.145,3.383,1.048,1.777,2.102,�k��,4.6,��
2015/02/06,11:00,-,3.283,3.300,3.142,3.385,1.048,1.775,2.100,�k��,4.9,��
2015/02/06,11:10,-,3.283,3.302,3.147,3.388,1.050,1.773,2.100,�k��,4.9,��
2015/02/06,11:20,-,3.288,3.305,3.148,3.388,1.050,1.777,2.103,�k��,4.3,��
2015/02/06,11:30,-,3.285,3.305,3.152,3.390,1.050,1.778,2.100,�k��,4.2,��
2015/02/06,11:40,-,3.288,3.310,3.152,3.393,1.047,1.777,2.100,�k�k��,4.0,��
2015/02/06,11:50,-,3.290,3.308,3.152,3.395,1.048,1.777,2.103,�k�k��,3.9,��
2015/02/06,12:00,-,3.293,3.312,3.152,3.402,1.050,1.778,2.100,�k��,2.5,��
2015/02/06,12:10,-,3.295,3.313,3.155,3.402,1.047,1.777,2.102,�k�k��,3.5,��
2015/02/06,12:20,-,3.302,3.317,3.153,3.402,1.050,1.775,2.102,�k,2.8,�L
2015/02/06,12:30,-,3.300,3.318,3.158,3.403,1.053,1.778,2.103,�k,3.0,�L
2015/02/06,12:40,-,3.300,3.320,3.158,3.407,1.057,1.780,2.102,�k,1.9,��
2015/02/06,12:50,-,3.302,3.325,3.158,3.407,1.058,1.782,2.103,�k�k��,3.0,��
2015/02/06,13:00,-,3.308,3.328,3.160,3.413,1.058,1.782,2.102,�k,3.1,��
2015/02/06,13:10,-,3.305,3.332,3.167,3.410,1.057,1.782,2.100,�k,1.3,��
2015/02/06,13:20,-,3.313,3.338,3.165,3.420,1.057,1.783,2.100,�k��,2.0,��
2015/02/06,13:30,-,3.315,3.342,3.168,3.422,1.060,1.782,2.102,�k��,2.3,��
2015/02/06,13:40,-,3.318,3.340,3.172,3.425,1.060,1.783,2.100,�k��,2.1,��
2015/02/06,13:50,-,3.320,3.345,3.172,3.425,1.062,1.783,2.100,�k�k��,2.5,��
2015/02/06,14:00,-,3.323,3.348,3.175,3.428,1.063,1.783,2.103,�k��,4.9,��
2015/02/06,14:10,-,3.325,3.352,3.177,3.432,1.062,1.787,2.105,�k��,7.1,��
2015/02/06,14:20,-,3.330,3.358,3.178,3.433,1.063,1.787,2.107,�k��,5.1,��
2015/02/06,14:30,-,3.332,3.365,3.182,3.438,1.065,1.785,2.105,���k��,5.6,��
2015/02/06,14:40,-,3.337,3.370,3.185,3.438,1.068,1.785,2.107,�k��,6.5,��
2015/02/06,14:50,-,3.338,3.368,3.185,3.443,1.067,1.788,2.108,���k��,5.8,��
2015/02/06,15:00,-,3.337,3.372,3.187,3.442,1.067,1.788,2.108,���k��,7.2,��
2015/02/06,15:10,-,3.342,3.377,3.188,3.443,1.070,1.787,2.108,���k��,5.7,��
2015/02/06,15:20,-,3.343,3.377,3.187,3.445,1.075,1.787,2.108,�k��,4.9,��
2015/02/06,15:30,-,3.343,3.382,3.190,3.445,1.077,1.788,2.108,���k��,5.7,��
2015/02/06,15:40,-,3.345,3.383,3.193,3.445,1.077,1.788,2.108,�k��,5.5,��
2015/02/06,15:50,-,3.348,3.385,3.197,3.447,1.080,1.787,2.107,�k��,6.8,��
2015/02/06,16:00,-,3.355,3.382,3.198,3.452,1.083,1.787,2.110,�k��,6.8,��
2015/02/06,16:10,-,3.352,3.388,3.197,3.452,1.083,1.790,2.113,�k��,6.4,��
2015/02/06,16:20,-,3.352,3.392,3.202,3.452,1.085,1.792,2.113,�k��,7.7,��
2015/02/06,16:30,-,3.348,3.390,3.200,3.453,1.083,1.792,2.112,�k��,7.1,��
2015/02/06,16:40,-,3.353,3.392,3.202,3.452,1.087,1.790,2.113,�k��,8.0,��
2015/02/06,16:50,-,3.355,3.395,3.207,3.452,1.085,1.792,2.112,�k��,7.4,��
2015/02/06,17:00,1.827,3.355,3.392,3.208,3.455,1.087,1.792,2.108,���k��,7.4,��
2015/02/06,17:10,1.843,3.357,3.392,3.207,3.455,1.085,1.790,2.112,���k��,6.9,��
2015/02/06,17:20,1.843,3.353,3.393,3.210,3.455,1.083,1.790,2.108,���k��,6.5,��
2015/02/06,17:30,1.842,3.355,3.393,3.212,3.450,1.082,1.792,2.112,�k��,6.1,��
2015/02/06,17:40,1.843,3.357,3.397,3.208,3.450,1.083,1.793,2.112,�k��,7.1,��
2015/02/06,17:50,1.843,3.357,3.395,3.212,3.455,1.085,1.795,2.113,�k��,8.2,��
2015/02/06,18:00,1.845,3.358,3.393,3.212,3.457,1.085,1.795,2.112,�k��,7.7,��
2015/02/06,18:10,1.847,3.358,3.398,3.218,3.458,1.087,1.792,2.113,�k��,8.2,��
2015/02/06,18:20,1.847,3.357,3.398,3.217,3.460,1.085,1.792,2.112,�k��,7.4,��
2015/02/06,18:30,1.845,3.358,3.398,3.215,3.457,1.087,1.790,2.107,���k��,9.1,��
2015/02/06,18:40,1.847,3.357,3.397,3.217,3.458,1.088,1.792,2.108,�k��,6.6,��
2015/02/06,18:50,1.845,3.357,3.397,3.222,3.458,1.085,1.793,2.112,���k��,4.7,��
2015/02/06,19:00,1.843,3.358,3.402,3.218,3.458,1.087,1.792,2.113,�k��,3.5,��
2015/02/06,19:10,1.848,3.357,3.400,3.220,3.460,1.088,1.792,2.113,�k��,3.6,��
2015/02/06,19:20,1.847,3.355,3.398,3.218,3.458,1.085,1.792,2.112,�k��,3.3,��
2015/02/06,19:30,1.847,3.357,3.398,3.217,3.457,1.090,1.790,2.110,�k��,3.8,��
2015/02/06,19:40,1.850,3.358,3.400,3.218,3.457,1.090,1.788,2.113,�k��,4.4,��
2015/02/06,19:50,1.850,3.357,3.400,3.215,3.457,1.087,1.790,2.112,�k��,5.5,��
2015/02/06,20:00,1.850,3.358,3.398,3.218,3.455,1.090,1.790,2.113,�k��,4.7,��
2015/02/06,20:10,1.848,3.358,3.397,3.222,3.458,1.088,1.790,2.113,�k��,5.3,��
2015/02/06,20:20,1.850,3.360,3.398,3.220,3.457,1.088,1.790,2.113,���k��,4.3,��
2015/02/06,20:30,1.850,3.360,3.402,3.218,3.453,1.087,1.790,2.112,���k��,4.3,��
2015/02/06,20:40,1.847,3.360,3.398,3.222,3.457,1.085,1.790,2.108,���k��,4.3,��
2015/02/06,20:50,1.850,3.355,3.398,3.220,3.460,1.087,1.792,2.110,���k��,5.5,��
2015/02/06,21:00,1.848,3.358,3.402,3.222,3.458,1.087,1.788,2.113,���k��,5.1,��
2015/02/06,21:10,1.845,3.358,3.400,3.220,3.457,1.087,1.788,2.108,��,4.2,��
2015/02/06,21:20,1.848,3.358,3.397,3.222,3.458,1.083,1.790,2.108,���쐼,3.8,��
2015/02/06,21:30,1.848,3.358,3.397,3.220,3.457,1.085,1.790,2.105,���쐼,4.0,��
2015/02/06,21:40,1.850,3.353,3.397,3.218,3.450,1.087,1.787,2.108,���쐼,3.8,��
2015/02/06,21:50,1.847,3.355,3.403,3.222,3.453,1.087,1.792,2.110,��,5.2,��
2015/02/06,22:00,1.848,3.358,3.402,3.220,3.448,1.087,1.788,2.110,���k��,5.4,��
2015/02/06,22:10,1.845,3.358,3.403,3.220,3.455,1.087,1.788,2.112,���k��,4.9,��
2015/02/06,22:20,1.845,3.353,3.400,3.222,3.450,1.087,1.788,2.113,���k��,5.0,��
2015/02/06,22:30,1.847,3.353,3.398,3.225,3.453,1.085,1.790,2.112,��,4.5,��
2015/02/06,22:40,1.848,3.358,3.400,3.225,3.453,1.087,1.788,2.108,���k��,3.0,��
2015/02/06,22:50,1.848,3.353,3.402,3.222,3.455,1.087,1.788,2.108,���k��,3.6,��
2015/02/06,23:00,1.847,3.353,3.400,3.223,3.455,1.085,1.787,2.110,���k��,3.3,��
2015/02/06,23:10,1.850,3.353,3.400,3.223,3.455,1.087,1.788,2.108,���k��,5.8,��
2015/02/06,23:20,1.847,3.348,3.402,3.223,3.455,1.085,1.788,2.110,���k��,5.1,��
2015/02/06,23:30,1.847,3.353,3.400,3.222,3.452,1.085,1.788,2.110,���k��,5.7,��
2015/02/06,23:40,1.848,3.355,3.403,3.222,3.453,1.083,1.787,2.110,���k��,4.1,��
2015/02/06,23:50,1.848,3.350,3.402,3.225,3.450,1.085,1.787,2.107,���k��,3.1,��
